EW5526 Weather Reports


Display with metric or nautical units.
time (UTC)temp
F
wind
direction
speed
MPH
gust
MPH
rain 1hr
in
rain 24hr
in
rain mn
in
humidity
%
barometer
mb
20260903163044 80 298 10.0 14.0 0.00 0.00 0.00 73 1017.3
20260903160043 81 18 14.0 17.0 0.00 0.00 0.00 71 1017.3
20260903153042 82 333 9.0 19.0 0.00 0.00 0.00 70 1017.4
20260903150043 83 302 19.0 19.0 0.00 0.00 0.00 68 1017.2
20260903143042 84 305 10.0 16.0 0.00 0.00 0.00 65 1017.3
20260903133041 86 341 9.0 16.0 0.00 0.00 0.00 59 1017.7
20260903123041 87 308 9.0 18.0 0.00 0.00 0.00 52 1018.1
20260903120041 87 306 11.0 12.0 0.00 0.00 0.00 52 1018.0
20260903113040 88 36 7.0 9.0 0.00 0.00 0.00 47 1018.1
20260903110040 89 307 9.0 11.0 0.00 0.00 0.00 47 1018.5
20260903103039 88 13 3.0 7.0 0.00 0.00 0.00 44 1018.6
20260903100039 87 300 11.0 14.0 0.00 0.00 0.00 47 1018.9
20260903093039 87 276 4.0 8.0 0.00 0.00 0.00 50 1019.2
20260903090038 86 316 3.0 3.0 0.00 0.00 0.00 47 1019.1
20260903083038 85 301 8.0 8.0 0.00 0.00 0.00 43 1019.1
20260903080038 85 11 4.0 9.0 0.00 0.00 0.00 40 1018.9
20260903073037 85 309 3.0 9.0 0.00 0.00 0.00 41 1018.8
20260903070037 84 360 2.0 3.0 0.00 0.00 0.00 41 1018.6
20260903063036 83 286 1.0 4.0 0.00 0.00 0.00 43 1018.5
20260903060037 81 5 3.0 5.0 0.00 0.00 0.00 44 1018.5
20260903053036 79 316 3.0 4.0 0.00 0.00 0.00 47 1018.3
20260903050035 77 5 4.0 4.0 0.00 0.00 0.00 51 1018.0
20260903043035 76 9 2.0 4.0 0.00 0.00 0.00 52 1018.0
20260903033035 79 350 4.0 4.0 0.00 0.00 0.00 44 1018.5
20260903030035 79 285 4.0 4.0 0.00 0.00 0.00 41 1018.6
20260903023034 80 321 2.0 6.0 0.00 0.00 0.00 40 1019.0
20260903020034 81 299 0.0 3.0 0.00 0.00 0.00 37 1019.2
20260903013033 82 289 3.0 5.0 0.00 0.00 0.00 39 1019.5
20260903010033 81 338 3.0 4.0 0.00 0.00 0.00 37 1019.6
20260903003033 81 322 4.0 5.0 0.00 0.00 0.00 38 1019.7
20260903000032 81 355 3.0 5.0 0.00 0.00 0.00 38 1019.7
20260902233032 81 355 2.0 4.0 0.00 0.00 0.00 37 1020.1
20260902230032 81 348 1.0 3.0 0.00 0.00 0.00 37 1020.1
20260902223032 81 355 1.0 3.0 0.00 0.00 0.00 36 1020.0
20260902220031 81 343 3.0 4.0 0.00 0.00 0.00 37 1020.2
20260902213031 82 341 2.0 4.0 0.00 0.00 0.00 37 1020.3
20260902210030 83 314 4.0 4.0 0.00 0.00 0.00 34 1020.5
20260902203030 83 360 6.0 8.0 0.00 0.00 0.00 37 1020.2
20260902200030 83 355 4.0 8.0 0.00 0.00 0.00 37 1020.4
20260902193031 83 334 5.0 9.0 0.00 0.00 0.00 41 1020.4
20260902190030 83 332 6.0 10.0 0.00 0.00 0.00 41 1020.1
20260902180029 84 330 3.0 5.0 0.00 0.00 0.00 39 1019.3
20260902173028 83 290 2.0 4.0 0.00 0.00 0.00 47 1019.2